| time (UTC) | temp F | wind direction | speed MPH | gust MPH | rain 1hr in | rain 24hr in | rain mn in | humidity % | barometer mb |
| 20260901054521 | 57 | 109 | 0.0 | 1.0 | 0.00 | 0.00 | 0.00 | 80 | 1011.8 |
| 20260901054017 | 57 | 106 | 0.0 | 2.0 | 0.00 | 0.00 | 0.00 | 80 | 1011.8 |
| 20260901053513 | 57 | 338 | 1.0 | 2.0 | 0.00 | 0.00 | 0.00 | 80 | 1011.8 |
| 20260901053009 | 57 | 339 | 0.0 | 2.0 | 0.00 | 0.00 | 0.00 | 80 | 1011.8 |
| 20260901052504 | 58 | 339 | 1.0 | 4.0 | 0.00 | 0.00 | 0.00 | 80 | 1012.1 |
| 20260901052004 | 58 | 91 | 0.0 | 4.0 | 0.00 | 0.00 | 0.00 | 79 | 1011.8 |
| 20260901051458 | 58 | 105 | 1.0 | 3.0 | 0.00 | 0.00 | 0.00 | 79 | 1011.8 |
| 20260901050957 | 58 | 80 | 1.0 | 1.0 | 0.00 | 0.00 | 0.00 | 78 | 1011.8 |
| 20260901050452 | 58 | 206 | 1.0 | 1.0 | 0.00 | 0.00 | 0.00 | 78 | 1011.8 |
| 20260901045952 | 58 | 329 | 1.0 | 3.0 | 0.00 | 0.00 | 0.00 | 78 | 1011.8 |
| 20260901045448 | 58 | 20 | 1.0 | 2.0 | 0.00 | 0.00 | 0.00 | 78 | 1011.8 |
| 20260901044942 | 58 | 289 | 2.0 | 3.0 | 0.00 | 0.00 | 0.00 | 78 | 1011.8 |
| 20260901044438 | 58 | 50 | 1.0 | 2.0 | 0.00 | 0.00 | 0.00 | 78 | 1011.8 |
| 20260901043934 | 58 | 105 | 1.0 | 2.0 | 0.00 | 0.00 | 0.00 | 78 | 1011.8 |
| 20260901043430 | 58 | 95 | 0.0 | 1.0 | 0.00 | 0.00 | 0.00 | 78 | 1012.1 |
| 20260901042930 | 59 | 103 | 1.0 | 1.0 | 0.00 | 0.00 | 0.00 | 78 | 1012.1 |
| 20260901042430 | 59 | 18 | 2.0 | 3.0 | 0.00 | 0.00 | 0.00 | 77 | 1011.8 |
| 20260901041925 | 59 | 79 | 1.0 | 3.0 | 0.00 | 0.00 | 0.00 | 77 | 1011.8 |
| 20260901041420 | 59 | 98 | 0.0 | 2.0 | 0.00 | 0.00 | 0.00 | 77 | 1011.8 |
| 20260901040919 | 59 | 112 | 0.0 | 2.0 | 0.00 | 0.00 | 0.00 | 77 | 1011.8 |
| 20260901040414 | 59 | 125 | 0.0 | 1.0 | 0.00 | 0.00 | 0.00 | 76 | 1011.8 |
| 20260901035908 | 59 | 105 | 0.0 | 3.0 | 0.00 | 0.00 | 0.00 | 76 | 1011.8 |
| 20260901035406 | 60 | 89 | 0.0 | 3.0 | 0.00 | 0.00 | 0.00 | 75 | 1011.8 |
| 20260901034905 | 60 | 41 | 1.0 | 1.0 | 0.00 | 0.00 | 0.00 | 75 | 1011.8 |
| 20260901034400 | 60 | 83 | 0.0 | 2.0 | 0.00 | 0.00 | 0.00 | 74 | 1011.8 |
| 20260901033855 | 61 | 338 | 1.0 | 2.0 | 0.00 | 0.00 | 0.00 | 73 | 1011.8 |
| 20260901033354 | 61 | 22 | 2.0 | 3.0 | 0.00 | 0.00 | 0.00 | 73 | 1011.8 |
| 20260901032853 | 61 | 58 | 1.0 | 3.0 | 0.00 | 0.00 | 0.00 | 72 | 1011.8 |
| 20260901032352 | 62 | 343 | 1.0 | 3.0 | 0.00 | 0.00 | 0.00 | 71 | 1011.3 |
| 20260901031848 | 62 | 342 | 2.0 | 6.0 | 0.00 | 0.00 | 0.00 | 71 | 1011.8 |
| 20260901031343 | 62 | 86 | 1.0 | 3.0 | 0.00 | 0.00 | 0.00 | 71 | 1011.3 |
| 20260901030843 | 62 | 111 | 1.0 | 2.0 | 0.00 | 0.00 | 0.00 | 70 | 1011.8 |
| 20260901030338 | 63 | 87 | 1.0 | 1.0 | 0.00 | 0.00 | 0.00 | 69 | 1011.3 |
| 20260901025837 | 63 | 85 | 1.0 | 3.0 | 0.00 | 0.00 | 0.00 | 69 | 1011.8 |
| 20260901025332 | 64 | 96 | 1.0 | 3.0 | 0.00 | 0.00 | 0.00 | 68 | 1011.8 |
| 20260901024827 | 64 | 114 | 1.0 | 4.0 | 0.00 | 0.00 | 0.00 | 68 | 1011.8 |
| 20260901024326 | 64 | 86 | 1.0 | 2.0 | 0.00 | 0.00 | 0.00 | 67 | 1011.8 |
| 20260901023824 | 65 | 94 | 1.0 | 1.0 | 0.00 | 0.00 | 0.00 | 66 | 1011.3 |
| 20260901023320 | 65 | 103 | 0.0 | 1.0 | 0.00 | 0.00 | 0.00 | 65 | 1011.8 |
| 20260901022815 | 65 | 96 | 0.0 | 1.0 | 0.00 | 0.00 | 0.00 | 65 | 1011.8 |
| 20260901022311 | 65 | 103 | 1.0 | 1.0 | 0.00 | 0.00 | 0.00 | 64 | 1011.8 |
| 20260901021806 | 66 | 59 | 1.0 | 2.0 | 0.00 | 0.00 | 0.00 | 64 | 1011.8 |
| 20260901021302 | 66 | 104 | 0.0 | 2.0 | 0.00 | 0.00 | 0.00 | 64 | 1011.8 |
| 20260901020756 | 66 | 66 | 1.0 | 2.0 | 0.00 | 0.00 | 0.00 | 64 | 1011.8 |
| 20260901020251 | 66 | 89 | 1.0 | 3.0 | 0.00 | 0.00 | 0.00 | 64 | 1011.8 |
| 20260901015746 | 66 | 90 | 0.0 | 2.0 | 0.00 | 0.00 | 0.00 | 65 | 1011.8 |
| 20260901015242 | 66 | 148 | 0.0 | 6.0 | 0.00 | 0.00 | 0.00 | 65 | 1011.8 |
| 20260901014736 | 66 | 100 | 0.0 | 4.0 | 0.00 | 0.00 | 0.00 | 66 | 1011.8 |
| 20260901014232 | 66 | 291 | 2.0 | 3.0 | 0.00 | 0.00 | 0.00 | 65 | 1011.8 |
| 20260901013728 | 66 | 98 | 1.0 | 4.0 | 0.00 | 0.00 | 0.00 | 65 | 1011.8 |
| 20260901013223 | 66 | 226 | 1.0 | 3.0 | 0.00 | 0.00 | 0.00 | 65 | 1011.8 |
| 20260901012718 | 66 | 146 | 0.0 | 2.0 | 0.00 | 0.00 | 0.00 | 65 | 1011.8 |
| 20260901012218 | 68 | 303 | 2.0 | 3.0 | 0.00 | 0.00 | 0.00 | 62 | 1012.1 |
| 20260901011714 | 68 | 225 | 2.0 | 2.0 | 0.00 | 0.00 | 0.00 | 62 | 1011.8 |
| 20260901011214 | 67 | 73 | 2.0 | 3.0 | 0.00 | 0.00 | 0.00 | 63 | 1012.1 |
| 20260901010708 | 68 | 345 | 3.0 | 6.0 | 0.00 | 0.00 | 0.00 | 62 | 1011.8 |
| 20260901010202 | 69 | 38 | 1.0 | 2.0 | 0.00 | 0.00 | 0.00 | 61 | 1012.1 |
| 20260901005656 | 69 | 111 | 1.0 | 1.0 | 0.00 | 0.00 | 0.00 | 60 | 1012.1 |
| 20260901005152 | 70 | 90 | 1.0 | 3.0 | 0.00 | 0.00 | 0.00 | 59 | 1012.1 |
| 20260901004652 | 72 | 359 | 2.0 | 2.0 | 0.00 | 0.00 | 0.00 | 56 | 1012.1 |
| 20260901004146 | 72 | 112 | 0.0 | 3.0 | 0.00 | 0.00 | 0.00 | 56 | 1012.5 |
| 20260901003640 | 71 | 112 | 1.0 | 2.0 | 0.00 | 0.00 | 0.00 | 58 | 1012.1 |
| 20260901003139 | 71 | 106 | 1.0 | 3.0 | 0.00 | 0.00 | 0.00 | 59 | 1012.1 |
| 20260901002634 | 72 | 314 | 3.0 | 3.0 | 0.00 | 0.00 | 0.00 | 56 | 1012.5 |
| 20260901002128 | 71 | 111 | 1.0 | 3.0 | 0.00 | 0.00 | 0.00 | 58 | 1012.5 |
| 20260901001624 | 70 | 130 | 0.0 | 1.0 | 0.00 | 0.00 | 0.00 | 59 | 1012.5 |
| 20260901001119 | 69 | 320 | 2.0 | 2.0 | 0.00 | 0.00 | 0.00 | 60 | 1012.5 |
| 20260901000614 | 69 | 236 | 2.0 | 4.0 | 0.00 | 0.00 | 0.00 | 61 | 1012.5 |
| 20260901000109 | 71 | 333 | 3.0 | 7.0 | 0.00 | 0.00 | 0.00 | 59 | 1012.5 |
| 20260831235602 | 70 | 306 | 2.0 | 4.0 | 0.00 | 0.00 | 0.00 | 60 | 1012.5 |
| 20260831235058 | 69 | 354 | 2.0 | 3.0 | 0.00 | 0.00 | 0.00 | 61 | 1012.5 |
| 20260831234552 | 69 | 21 | 3.0 | 6.0 | 0.00 | 0.00 | 0.00 | 60 | 1012.5 |
| 20260831234048 | 70 | 64 | 2.0 | 4.0 | 0.00 | 0.00 | 0.00 | 60 | 1012.5 |
| 20260831233543 | 70 | 340 | 3.0 | 3.0 | 0.00 | 0.00 | 0.00 | 58 | 1012.5 |
| 20260831233039 | 72 | 101 | 1.0 | 4.0 | 0.00 | 0.00 | 0.00 | 57 | 1012.8 |
| 20260831232534 | 72 | 169 | 0.0 | 6.0 | 0.00 | 0.00 | 0.00 | 58 | 1012.8 |
| 20260831232030 | 73 | 188 | 1.0 | 2.0 | 0.00 | 0.00 | 0.00 | 55 | 1012.8 |
| 20260831231526 | 71 | 128 | 1.0 | 4.0 | 0.00 | 0.00 | 0.00 | 58 | 1013.1 |
| 20260831231021 | 70 | 109 | 0.0 | 3.0 | 0.00 | 0.00 | 0.00 | 59 | 1012.8 |
| 20260831230516 | 70 | 115 | 1.0 | 8.0 | 0.00 | 0.00 | 0.00 | 60 | 1012.8 |
| 20260831230011 | 70 | 341 | 2.0 | 6.0 | 0.00 | 0.00 | 0.00 | 60 | 1013.1 |
| 20260831225507 | 70 | 70 | 3.0 | 7.0 | 0.00 | 0.00 | 0.00 | 60 | 1013.1 |
| 20260831225006 | 69 | 109 | 1.0 | 7.0 | 0.00 | 0.00 | 0.00 | 62 | 1013.1 |
| 20260831224501 | 72 | 316 | 3.0 | 4.0 | 0.00 | 0.00 | 0.00 | 58 | 1013.5 |
| 20260831223956 | 70 | 63 | 1.0 | 4.0 | 0.00 | 0.00 | 0.00 | 60 | 1013.1 |
| 20260831223451 | 71 | 26 | 2.0 | 3.0 | 0.00 | 0.00 | 0.00 | 59 | 1013.1 |
| 20260831222947 | 70 | 124 | 1.0 | 3.0 | 0.00 | 0.00 | 0.00 | 61 | 1013.5 |
| 20260831222443 | 69 | 90 | 1.0 | 2.0 | 0.00 | 0.00 | 0.00 | 61 | 1013.5 |
| 20260831221938 | 71 | 55 | 2.0 | 6.0 | 0.00 | 0.00 | 0.00 | 59 | 1013.5 |
| 20260831221434 | 68 | 313 | 1.0 | 3.0 | 0.00 | 0.00 | 0.00 | 64 | 1013.5 |
| 20260831220929 | 69 | 345 | 2.0 | 4.0 | 0.00 | 0.00 | 0.00 | 63 | 1013.5 |
| 20260831220424 | 70 | 331 | 2.0 | 2.0 | 0.00 | 0.00 | 0.00 | 60 | 1013.5 |
| 20260831215919 | 69 | 71 | 2.0 | 4.0 | 0.00 | 0.00 | 0.00 | 62 | 1013.8 |
| 20260831215415 | 71 | 336 | 4.0 | 6.0 | 0.00 | 0.00 | 0.00 | 61 | 1013.8 |
| 20260831214911 | 71 | 182 | 0.0 | 2.0 | 0.00 | 0.00 | 0.00 | 60 | 1013.8 |
| 20260831214409 | 68 | 194 | 2.0 | 4.0 | 0.00 | 0.00 | 0.00 | 64 | 1013.8 |
| 20260831213904 | 71 | 317 | 1.0 | 4.0 | 0.00 | 0.00 | 0.00 | 61 | 1014.1 |
| 20260831213401 | 73 | 108 | 1.0 | 3.0 | 0.00 | 0.00 | 0.00 | 57 | 1014.1 |
| 20260831212855 | 69 | 120 | 1.0 | 7.0 | 0.00 | 0.00 | 0.00 | 62 | 1014.1 |
| 20260831212352 | 68 | 55 | 1.0 | 3.0 | 0.00 | 0.00 | 0.00 | 64 | 1013.8 |
| 20260831211850 | 68 | 45 | 3.0 | 6.0 | 0.00 | 0.00 | 0.00 | 64 | 1014.1 |
| 20260831211345 | 68 | 0 | 2.0 | 7.0 | 0.00 | 0.00 | 0.00 | 64 | 1014.1 |
| 20260831210844 | 68 | 20 | 4.0 | 8.0 | 0.00 | 0.00 | 0.00 | 64 | 1014.1 |
| 20260831210340 | 68 | 51 | 1.0 | 3.0 | 0.00 | 0.00 | 0.00 | 63 | 1014.1 |
| 20260831205836 | 69 | 310 | 4.0 | 6.0 | 0.00 | 0.00 | 0.00 | 61 | 1014.1 |
| 20260831205331 | 69 | 110 | 1.0 | 6.0 | 0.00 | 0.00 | 0.00 | 62 | 1014.5 |
| 20260831204826 | 68 | 39 | 1.0 | 3.0 | 0.00 | 0.00 | 0.00 | 63 | 1014.1 |
| 20260831204325 | 67 | 14 | 2.0 | 4.0 | 0.00 | 0.00 | 0.00 | 63 | 1014.5 |
| 20260831203824 | 68 | 88 | 3.0 | 6.0 | 0.00 | 0.00 | 0.00 | 63 | 1014.5 |
| 20260831203319 | 68 | 71 | 4.0 | 4.0 | 0.00 | 0.00 | 0.00 | 62 | 1014.5 |
| 20260831202817 | 68 | 83 | 3.0 | 6.0 | 0.00 | 0.00 | 0.00 | 63 | 1014.8 |
| 20260831202312 | 68 | 290 | 4.0 | 6.0 | 0.00 | 0.00 | 0.00 | 62 | 1014.8 |
| 20260831201807 | 67 | 61 | 3.0 | 6.0 | 0.00 | 0.00 | 0.00 | 63 | 1014.8 |
| 20260831201305 | 67 | 26 | 3.0 | 4.0 | 0.00 | 0.00 | 0.00 | 64 | 1014.8 |
| 20260831200801 | 68 | 15 | 2.0 | 4.0 | 0.00 | 0.00 | 0.00 | 64 | 1014.8 |
| 20260831200256 | 67 | 10 | 2.0 | 4.0 | 0.00 | 0.00 | 0.00 | 65 | 1014.8 |
| 20260831195751 | 68 | 253 | 2.0 | 4.0 | 0.00 | 0.00 | 0.00 | 63 | 1014.8 |
| 20260831195247 | 68 | 53 | 5.0 | 7.0 | 0.00 | 0.00 | 0.00 | 63 | 1014.8 |
| 20260831194742 | 68 | 192 | 2.0 | 3.0 | 0.00 | 0.00 | 0.00 | 64 | 1014.8 |
| 20260831194238 | 68 | 74 | 1.0 | 3.0 | 0.00 | 0.00 | 0.00 | 63 | 1014.8 |
| 20260831193731 | 66 | 349 | 2.0 | 8.0 | 0.00 | 0.00 | 0.00 | 66 | 1014.8 |
| 20260831193227 | 68 | 25 | 1.0 | 3.0 | 0.00 | 0.00 | 0.00 | 64 | 1015.2 |
| 20260831192722 | 66 | 357 | 2.0 | 6.0 | 0.00 | 0.00 | 0.00 | 66 | 1015.2 |
| 20260831192217 | 66 | 283 | 2.0 | 8.0 | 0.00 | 0.00 | 0.00 | 67 | 1015.2 |
| 20260831191713 | 66 | 86 | 1.0 | 3.0 | 0.00 | 0.00 | 0.00 | 67 | 1015.2 |
| 20260831191209 | 65 | 70 | 3.0 | 7.0 | 0.00 | 0.00 | 0.00 | 68 | 1015.5 |
| 20260831190704 | 65 | 42 | 3.0 | 4.0 | 0.00 | 0.00 | 0.00 | 67 | 1015.2 |
| 20260831190203 | 65 | 41 | 2.0 | 2.0 | 0.00 | 0.00 | 0.00 | 67 | 1015.2 |
| 20260831185659 | 65 | 298 | 3.0 | 4.0 | 0.00 | 0.00 | 0.00 | 68 | 1015.2 |
| 20260831185154 | 64 | 298 | 2.0 | 3.0 | 0.00 | 0.00 | 0.00 | 70 | 1015.5 |
| 20260831184653 | 64 | 76 | 1.0 | 3.0 | 0.00 | 0.00 | 0.00 | 70 | 1015.8 |
| 20260831184149 | 64 | 286 | 3.0 | 4.0 | 0.00 | 0.00 | 0.00 | 71 | 1015.5 |
| 20260831183648 | 64 | 28 | 3.0 | 3.0 | 0.00 | 0.00 | 0.00 | 70 | 1015.5 |
| 20260831183148 | 64 | 95 | 2.0 | 3.0 | 0.00 | 0.00 | 0.00 | 71 | 1015.5 |
| 20260831182647 | 65 | 87 | 2.0 | 3.0 | 0.00 | 0.00 | 0.00 | 70 | 1015.8 |
| 20260831182143 | 65 | 90 | 0.0 | 3.0 | 0.00 | 0.00 | 0.00 | 72 | 1015.8 |
| 20260831181637 | 64 | 109 | 1.0 | 2.0 | 0.00 | 0.00 | 0.00 | 72 | 1015.8 |
| 20260831181132 | 63 | 209 | 1.0 | 3.0 | 0.00 | 0.00 | 0.00 | 74 | 1015.8 |
| 20260831180627 | 62 | 126 | 2.0 | 4.0 | 0.00 | 0.00 | 0.00 | 75 | 1015.8 |
| 20260831180122 | 62 | 340 | 2.0 | 3.0 | 0.00 | 0.00 | 0.00 | 77 | 1015.8 |
| 20260831175616 | 62 | 74 | 2.0 | 6.0 | 0.00 | 0.00 | 0.00 | 76 | 1015.8 |
| 20260831175114 | 62 | 72 | 2.0 | 4.0 | 0.00 | 0.00 | 0.00 | 76 | 1015.8 |
| 20260831174613 | 62 | 91 | 2.0 | 4.0 | 0.00 | 0.00 | 0.00 | 76 | 1015.8 |
| 20260831174108 | 61 | 96 | 0.0 | 6.0 | 0.00 | 0.00 | 0.00 | 77 | 1016.2 |
| 20260831173606 | 61 | 57 | 2.0 | 7.0 | 0.00 | 0.00 | 0.00 | 77 | 1015.8 |
| 20260831173102 | 61 | 61 | 1.0 | 6.0 | 0.00 | 0.00 | 0.00 | 77 | 1015.8 |
| 20260831172557 | 61 | 102 | 2.0 | 6.0 | 0.00 | 0.00 | 0.00 | 76 | 1016.2 |
| 20260831172052 | 62 | 109 | 2.0 | 4.0 | 0.00 | 0.00 | 0.00 | 76 | 1016.2 |
| 20260831171547 | 62 | 310 | 3.0 | 6.0 | 0.00 | 0.00 | 0.00 | 75 | 1016.2 |
| 20260831171044 | 61 | 110 | 1.0 | 4.0 | 0.00 | 0.00 | 0.00 | 77 | 1016.2 |
| 20260831170540 | 61 | 87 | 2.0 | 6.0 | 0.00 | 0.00 | 0.00 | 76 | 1016.2 |
| 20260831170038 | 61 | 315 | 3.0 | 6.0 | 0.00 | 0.00 | 0.00 | 77 | 1016.2 |
| 20260831165537 | 61 | 76 | 2.0 | 3.0 | 0.00 | 0.00 | 0.00 | 77 | 1015.8 |
| 20260831165034 | 60 | 316 | 2.0 | 4.0 | 0.00 | 0.00 | 0.00 | 78 | 1016.2 |
| 20260831164530 | 60 | 84 | 2.0 | 3.0 | 0.00 | 0.00 | 0.00 | 80 | 1016.2 |
| 20260831164025 | 60 | 71 | 2.0 | 3.0 | 0.00 | 0.00 | 0.00 | 80 | 1016.2 |
| 20260831163520 | 59 | 352 | 0.0 | 1.0 | 0.00 | 0.00 | 0.00 | 81 | 1016.2 |
| 20260831163016 | 59 | 11 | 1.0 | 1.0 | 0.00 | 0.00 | 0.00 | 82 | 1016.5 |
| 20260831162515 | 59 | 30 | 0.0 | 2.0 | 0.00 | 0.00 | 0.00 | 82 | 1016.2 |
| 20260831162012 | 58 | 18 | 1.0 | 2.0 | 0.00 | 0.00 | 0.00 | 83 | 1016.2 |
| 20260831161509 | 58 | 1 | 1.0 | 2.0 | 0.00 | 0.00 | 0.00 | 83 | 1016.2 |
| 20260831161005 | 58 | 356 | 3.0 | 3.0 | 0.00 | 0.00 | 0.00 | 84 | 1016.5 |
| 20260831160504 | 57 | 258 | 3.0 | 6.0 | 0.00 | 0.00 | 0.00 | 85 | 1016.5 |
| 20260831155959 | 57 | 100 | 0.0 | 2.0 | 0.00 | 0.00 | 0.00 | 86 | 1016.5 |
| 20260831155454 | 57 | 61 | 1.0 | 3.0 | 0.00 | 0.00 | 0.00 | 87 | 1016.2 |
| 20260831154949 | 57 | 308 | 1.0 | 3.0 | 0.00 | 0.00 | 0.00 | 90 | 1016.5 |
| 20260831154446 | 57 | 307 | 2.0 | 3.0 | 0.00 | 0.00 | 0.00 | 91 | 1016.5 |
| 20260831153944 | 56 | 147 | 0.0 | 1.0 | 0.00 | 0.00 | 0.00 | 92 | 1016.9 |
| 20260831153440 | 56 | 105 | 0.0 | 3.0 | 0.00 | 0.00 | 0.00 | 93 | 1016.5 |
| 20260831152937 | 55 | 330 | 3.0 | 3.0 | 0.00 | 0.00 | 0.00 | 94 | 1016.5 |
| 20260831152432 | 55 | 314 | 0.0 | 2.0 | 0.00 | 0.00 | 0.00 | 94 | 1016.5 |
| 20260831151927 | 55 | 124 | 2.0 | 3.0 | 0.00 | 0.00 | 0.00 | 95 | 1016.5 |
| 20260831151426 | 55 | 359 | 0.0 | 2.0 | 0.00 | 0.00 | 0.00 | 95 | 1016.9 |
| 20260831150921 | 55 | 73 | 1.0 | 3.0 | 0.00 | 0.00 | 0.00 | 95 | 1016.5 |
| 20260831150417 | 55 | 82 | 1.0 | 4.0 | 0.00 | 0.00 | 0.00 | 95 | 1016.5 |
| 20260831145916 | 55 | 80 | 1.0 | 1.0 | 0.00 | 0.00 | 0.00 | 95 | 1016.9 |
| 20260831145412 | 54 | 99 | 0.0 | 3.0 | 0.00 | 0.00 | 0.00 | 95 | 1016.5 |
| 20260831144908 | 54 | 24 | 2.0 | 3.0 | 0.00 | 0.00 | 0.00 | 95 | 1016.9 |
| 20260831144403 | 54 | 25 | 0.0 | 3.0 | 0.00 | 0.00 | 0.00 | 95 | 1016.9 |
| 20260831143858 | 54 | 178 | 0.0 | 3.0 | 0.00 | 0.00 | 0.00 | 95 | 1016.5 |
| 20260831143348 | 54 | 334 | 2.0 | 4.0 | 0.00 | 0.00 | 0.00 | 95 | 1016.9 |
| 20260831142843 | 54 | 80 | 0.0 | 1.0 | 0.00 | 0.00 | 0.00 | 95 | 1016.5 |
| 20260831142338 | 54 | 340 | 1.0 | 2.0 | 0.00 | 0.00 | 0.00 | 95 | 1016.9 |
| 20260831141832 | 53 | 95 | 0.0 | 1.0 | 0.00 | 0.00 | 0.00 | 95 | 1016.5 |
| 20260831141327 | 53 | 28 | 0.0 | 2.0 | 0.00 | 0.00 | 0.00 | 95 | 1016.5 |
| 20260831140821 | 53 | 339 | 2.0 | 3.0 | 0.00 | 0.00 | 0.00 | 95 | 1016.5 |
| 20260831140316 | 53 | 91 | 0.0 | 1.0 | 0.00 | 0.00 | 0.00 | 95 | 1016.5 |
| 20260831135814 | 53 | 96 | 0.0 | 2.0 | 0.00 | 0.00 | 0.00 | 95 | 1016.5 |
| 20260831135310 | 53 | 58 | 1.0 | 2.0 | 0.00 | 0.00 | 0.00 | 95 | 1016.5 |
| 20260831134805 | 53 | 326 | 1.0 | 4.0 | 0.00 | 0.00 | 0.00 | 95 | 1016.5 |
| 20260831134302 | 53 | 75 | 1.0 | 2.0 | 0.00 | 0.00 | 0.00 | 95 | 1016.9 |
| 20260831133800 | 53 | 21 | 1.0 | 6.0 | 0.00 | 0.00 | 0.00 | 95 | 1016.5 |
| 20260831133255 | 53 | 294 | 1.0 | 2.0 | 0.00 | 0.00 | 0.00 | 95 | 1016.5 |
| 20260831132750 | 53 | 29 | 1.0 | 1.0 | 0.00 | 0.00 | 0.00 | 95 | 1016.5 |
| 20260831132244 | 53 | 79 | 1.0 | 1.0 | 0.00 | 0.00 | 0.00 | 95 | 1016.9 |
| 20260831131738 | 53 | 101 | 0.0 | 7.0 | 0.00 | 0.00 | 0.00 | 95 | 1016.5 |
| 20260831131235 | 53 | 84 | 1.0 | 2.0 | 0.00 | 0.00 | 0.00 | 95 | 1016.9 |
| 20260831130730 | 53 | 187 | 2.0 | 3.0 | 0.00 | 0.00 | 0.00 | 95 | 1016.9 |
| 20260831130226 | 53 | 106 | 0.0 | 2.0 | 0.00 | 0.00 | 0.00 | 95 | 1016.9 |
| 20260831125724 | 53 | 331 | 4.0 | 6.0 | 0.00 | 0.00 | 0.00 | 95 | 1016.9 |
| 20260831125221 | 53 | 43 | 1.0 | 2.0 | 0.00 | 0.00 | 0.00 | 95 | 1016.9 |
| 20260831124715 | 53 | 86 | 1.0 | 3.0 | 0.00 | 0.00 | 0.00 | 95 | 1016.9 |
| 20260831124211 | 53 | 12 | 2.0 | 3.0 | 0.00 | 0.00 | 0.00 | 95 | 1016.9 |
| 20260831123711 | 53 | 95 | 0.0 | 3.0 | 0.00 | 0.00 | 0.00 | 94 | 1016.9 |
| 20260831123210 | 53 | 28 | 1.0 | 3.0 | 0.00 | 0.00 | 0.00 | 94 | 1017.2 |
| 20260831122709 | 53 | 27 | 1.0 | 2.0 | 0.00 | 0.00 | 0.00 | 94 | 1016.9 |
| 20260831122200 | 53 | 324 | 1.0 | 1.0 | 0.00 | 0.00 | 0.00 | 94 | 1017.2 |
| 20260831121659 | 54 | 94 | 1.0 | 6.0 | 0.00 | 0.00 | 0.00 | 94 | 1017.2 |
| 20260831121156 | 54 | 88 | 1.0 | 2.0 | 0.00 | 0.00 | 0.00 | 94 | 1016.9 |
| 20260831120651 | 54 | 31 | 2.0 | 2.0 | 0.00 | 0.00 | 0.00 | 94 | 1017.2 |
| 20260831120145 | 54 | 58 | 1.0 | 1.0 | 0.00 | 0.00 | 0.00 | 94 | 1017.2 |
| 20260831115642 | 54 | 295 | 1.0 | 3.0 | 0.00 | 0.00 | 0.00 | 94 | 1017.5 |
| 20260831115137 | 54 | 102 | 0.0 | 1.0 | 0.00 | 0.00 | 0.00 | 94 | 1017.5 |
| 20260831114636 | 54 | 75 | 1.0 | 2.0 | 0.00 | 0.00 | 0.00 | 94 | 1017.5 |
| 20260831114131 | 54 | 41 | 2.0 | 2.0 | 0.00 | 0.00 | 0.00 | 94 | 1017.5 |
| 20260831113630 | 54 | 356 | 2.0 | 3.0 | 0.00 | 0.00 | 0.00 | 94 | 1017.5 |
| 20260831113126 | 54 | 56 | 2.0 | 3.0 | 0.00 | 0.00 | 0.00 | 94 | 1017.5 |
| 20260831112624 | 54 | 59 | 1.0 | 1.0 | 0.00 | 0.00 | 0.00 | 94 | 1017.5 |
| 20260831112119 | 54 | 315 | 4.0 | 4.0 | 0.00 | 0.00 | 0.00 | 94 | 1017.9 |
| 20260831111610 | 54 | 147 | 1.0 | 1.0 | 0.00 | 0.00 | 0.00 | 93 | 1017.9 |
| 20260831111105 | 54 | 104 | 0.0 | 1.0 | 0.00 | 0.00 | 0.00 | 93 | 1017.5 |
| 20260831110600 | 55 | 300 | 3.0 | 6.0 | 0.00 | 0.00 | 0.00 | 93 | 1017.9 |
| 20260831110055 | 55 | 75 | 1.0 | 6.0 | 0.00 | 0.00 | 0.00 | 93 | 1017.9 |
| 20260831105554 | 55 | 51 | 1.0 | 3.0 | 0.00 | 0.00 | 0.00 | 93 | 1017.9 |
| 20260831105049 | 55 | 56 | 0.0 | 3.0 | 0.00 | 0.00 | 0.00 | 93 | 1017.5 |
| 20260831104546 | 55 | 322 | 2.0 | 4.0 | 0.00 | 0.00 | 0.00 | 93 | 1017.9 |
| 20260831104042 | 55 | 80 | 1.0 | 3.0 | 0.00 | 0.00 | 0.00 | 93 | 1017.9 |
| 20260831103537 | 55 | 82 | 1.0 | 3.0 | 0.00 | 0.00 | 0.00 | 93 | 1017.9 |
| 20260831103033 | 55 | 312 | 2.0 | 4.0 | 0.00 | 0.00 | 0.00 | 93 | 1017.9 |
| 20260831102532 | 55 | 307 | 2.0 | 2.0 | 0.00 | 0.00 | 0.00 | 92 | 1017.9 |
| 20260831102028 | 55 | 92 | 1.0 | 1.0 | 0.00 | 0.00 | 0.00 | 92 | 1017.9 |
| 20260831101522 | 55 | 91 | 1.0 | 3.0 | 0.00 | 0.00 | 0.00 | 92 | 1017.9 |
| 20260831101019 | 55 | 329 | 1.0 | 2.0 | 0.00 | 0.00 | 0.00 | 92 | 1017.9 |
| 20260831100514 | 55 | 350 | 1.0 | 6.0 | 0.00 | 0.00 | 0.00 | 92 | 1018.2 |
| 20260831100010 | 55 | 81 | 1.0 | 4.0 | 0.00 | 0.00 | 0.00 | 92 | 1018.2 |
| 20260831095509 | 55 | 62 | 1.0 | 2.0 | 0.00 | 0.00 | 0.00 | 92 | 1018.2 |
| 20260831095004 | 55 | 25 | 1.0 | 3.0 | 0.00 | 0.00 | 0.00 | 91 | 1018.2 |
| 20260831094500 | 55 | 109 | 0.0 | 4.0 | 0.00 | 0.00 | 0.00 | 91 | 1018.2 |
| 20260831093955 | 55 | 90 | 1.0 | 1.0 | 0.00 | 0.00 | 0.00 | 91 | 1018.2 |
| 20260831093450 | 55 | 94 | 2.0 | 2.0 | 0.00 | 0.00 | 0.00 | 91 | 1018.5 |
| 20260831092947 | 55 | 152 | 1.0 | 2.0 | 0.00 | 0.00 | 0.00 | 91 | 1018.5 |
| 20260831092442 | 55 | 79 | 0.0 | 2.0 | 0.00 | 0.00 | 0.00 | 90 | 1018.5 |
| 20260831091937 | 55 | 98 | 1.0 | 1.0 | 0.00 | 0.00 | 0.00 | 90 | 1018.5 |
| 20260831091433 | 55 | 57 | 1.0 | 2.0 | 0.00 | 0.00 | 0.00 | 90 | 1018.5 |
| 20260831090927 | 56 | 89 | 0.0 | 1.0 | 0.00 | 0.00 | 0.00 | 90 | 1018.5 |
| 20260831090424 | 56 | 297 | 3.0 | 6.0 | 0.00 | 0.00 | 0.00 | 90 | 1018.5 |
| 20260831085920 | 56 | 58 | 1.0 | 4.0 | 0.00 | 0.00 | 0.00 | 90 | 1018.5 |
| 20260831085415 | 56 | 43 | 1.0 | 4.0 | 0.00 | 0.00 | 0.00 | 89 | 1018.5 |
| 20260831084914 | 56 | 74 | 1.0 | 6.0 | 0.00 | 0.00 | 0.00 | 89 | 1018.5 |
| 20260831084410 | 56 | 75 | 1.0 | 3.0 | 0.00 | 0.00 | 0.00 | 89 | 1018.5 |
| 20260831083907 | 56 | 344 | 2.0 | 3.0 | 0.00 | 0.00 | 0.00 | 90 | 1018.5 |
| 20260831083402 | 56 | 77 | 1.0 | 2.0 | 0.00 | 0.00 | 0.00 | 89 | 1018.9 |
| 20260831082900 | 56 | 41 | 2.0 | 3.0 | 0.00 | 0.00 | 0.00 | 89 | 1018.9 |
| 20260831082400 | 56 | 99 | 0.0 | 1.0 | 0.00 | 0.00 | 0.00 | 89 | 1018.9 |
| 20260831081856 | 56 | 82 | 1.0 | 1.0 | 0.00 | 0.00 | 0.00 | 89 | 1018.9 |
| 20260831081351 | 56 | 104 | 0.0 | 1.0 | 0.00 | 0.00 | 0.00 | 89 | 1018.9 |
| 20260831080847 | 56 | 69 | 0.0 | 1.0 | 0.00 | 0.00 | 0.00 | 89 | 1019.2 |
| 20260831080342 | 56 | 357 | 2.0 | 2.0 | 0.00 | 0.00 | 0.00 | 89 | 1019.2 |
| 20260831075838 | 56 | 73 | 0.0 | 2.0 | 0.00 | 0.00 | 0.00 | 89 | 1019.2 |
| 20260831075332 | 56 | 52 | 1.0 | 1.0 | 0.00 | 0.00 | 0.00 | 89 | 1019.2 |
| 20260831074828 | 56 | 105 | 0.0 | 1.0 | 0.00 | 0.00 | 0.00 | 89 | 1019.2 |
| 20260831074327 | 56 | 18 | 2.0 | 3.0 | 0.00 | 0.00 | 0.00 | 89 | 1019.2 |
| 20260831073823 | 56 | 86 | 0.0 | 3.0 | 0.00 | 0.00 | 0.00 | 89 | 1019.2 |
| 20260831073321 | 56 | 76 | 0.0 | 1.0 | 0.00 | 0.00 | 0.00 | 89 | 1019.2 |
| 20260831072817 | 56 | 95 | 0.0 | 0.0 | 0.00 | 0.00 | 0.00 | 89 | 1019.6 |
| 20260831072313 | 56 | 92 | 1.0 | 1.0 | 0.00 | 0.00 | 0.00 | 89 | 1019.6 |
| 20260831071809 | 56 | 69 | 0.0 | 1.0 | 0.00 | 0.00 | 0.00 | 89 | 1019.6 |
| 20260831071307 | 56 | 101 | 0.0 | 1.0 | 0.00 | 0.00 | 0.00 | 89 | 1019.6 |
| 20260831070803 | 56 | 97 | 0.0 | 1.0 | 0.00 | 0.00 | 0.00 | 89 | 1019.6 |
| 20260831070302 | 56 | 98 | 0.0 | 1.0 | 0.00 | 0.00 | 0.00 | 89 | 1019.6 |
| 20260831065801 | 56 | 98 | 0.0 | 2.0 | 0.00 | 0.00 | 0.00 | 88 | 1019.6 |
| 20260831065259 | 56 | 90 | 0.0 | 1.0 | 0.00 | 0.00 | 0.00 | 88 | 1019.9 |
| 20260831064754 | 56 | 93 | 0.0 | 1.0 | 0.00 | 0.00 | 0.00 | 88 | 1019.9 |
| 20260831064249 | 56 | 100 | 0.0 | 1.0 | 0.00 | 0.00 | 0.00 | 88 | 1019.9 |
| 20260831063745 | 56 | 95 | 0.0 | 0.0 | 0.00 | 0.00 | 0.00 | 88 | 1019.9 |
| 20260831063239 | 56 | 90 | 0.0 | 2.0 | 0.00 | 0.00 | 0.00 | 88 | 1019.9 |
| 20260831062734 | 56 | 94 | 0.0 | 0.0 | 0.00 | 0.00 | 0.00 | 88 | 1020.2 |
| 20260831062229 | 56 | 91 | 0.0 | 1.0 | 0.00 | 0.00 | 0.00 | 87 | 1019.9 |
| 20260831061727 | 56 | 97 | 0.0 | 1.0 | 0.00 | 0.00 | 0.00 | 87 | 1019.9 |
| 20260831061222 | 57 | 47 | 2.0 | 2.0 | 0.00 | 0.00 | 0.00 | 87 | 1020.2 |
| 20260831060719 | 57 | 70 | 0.0 | 1.0 | 0.00 | 0.00 | 0.00 | 87 | 1020.2 |
| 20260831060218 | 57 | 91 | 0.0 | 1.0 | 0.00 | 0.00 | 0.00 | 86 | 1020.2 |
| 20260831055713 | 57 | 88 | 0.0 | 1.0 | 0.00 | 0.00 | 0.00 | 86 | 1020.2 |
| 20260831055207 | 57 | 95 | 1.0 | 1.0 | 0.00 | 0.00 | 0.00 | 86 | 1020.2 |